Location: Anan
(43.3550°N, 0.8171°E)
Time: 10:51:27
(UTC+00:00)

YAOGAN 11 - Pass Details

Date: 14 May 2026
Orbit: 599 x 646 km, 98.4° (Epoch: 6 June)

Event Time Altitude Azimuth Distance (km) Brightness Sun altitude
Rises 20:29:22 0° 17° (NNE) 2,944 7.9 -12.3°
Reaches altitude 10° 20:31:36 10° 22° (NNE) 2,037 7.0 -12.6°
Maximum altitude 20:35:58 56° 101° (E) 770 4.2 -13.2°
Enters shadow 20:40:14 11° 179° (S) 1,993 6.3 -13.7°
